Location: Aldenham
(51.6667°N, 0.3500°W)
Time: 16:56:57
(UTC+00:00)

Vanguard 2 Rocket - Pass Details

Date: 20 February 2026
Orbit: 553 x 3286 km, 32.9° (Epoch: 11 March)

Event Time Altitude Azimuth Distance (km) Brightness Sun altitude
Rises 13:34:04 0° 245° (WSW) 7,230 12.2 25.3°
Reaches altitude 10° 13:39:45 10° 238° (WSW) 6,071 12.1 24.9°
Maximum altitude 13:55:03 35° 183° (S) 3,535 11.4 23.9°
Drops below altitude 10° 14:05:36 10° 123° (ESE) 4,199 10.4 23.1°
Sets 14:08:42 0° 114° (ESE) 4,846 10.6 22.9°
